sat.trackr.live / text

‹ back to catalog

STARLINK-34349

NORAD 64215 · 2025-117N

PAYLOAD ACTIVE UNKNOWN

§ Identity

Operator
Country
US
Launch date
2025-05-31
Launch site
AFWTR
Launch vehicle
Mass (kg)
RCS (m²)

Purposes: comms

External: N2YO · Heavens-Above · Gunter

§ Orbital elements

Epoch: 2026-05-25T02:23:15.169632Z

Period
94.10 min
Inclination
53.1599°
Eccentricity
0.0001065
Mean motion
15.30209906 rev/d
Perigee alt
474.5 km
Apogee alt
475.9 km
Semi-major
6,853.3 km
B*
4.2886e-4
RAAN
44.7349°
Arg perigee
112.1348°
Mean anomaly
247.9766°
Rev number
5,622

§ Raw data

STARLINK-343491 64215U 25117N   26145.09948113  .00012368  00000+0  42886-3 0  99972 64215  53.1599  44.7349 0001065 112.1348 247.9766 15.30209906 56226

JSON: /api/v1/satellites/64215 · /tle

For live sub-satellite position, see the globe view (requires WebGL).

§ Visibility from observer

Set your observer location to see the next 7 days of passes ≥ 10°. The values pass through the URL so the page stays shareable.

No JS? Fill the form by hand. The geolocation button needs JavaScript.